Flag for U.S.A. Weather past 2 weeks in Redmond, Washington, U.S.A.

Now
50 °F

Clear.


Feels Like: 49 °F
Forecast: 49 / 64 °F
Wind: 3 mph from Southeast

Location: Seattle Boeing Field


UV Index: 0 (Low)

Visibility: 10 mi


Pressure: 30.04 "Hg

Humidity: 71%

Dew point: 41 °F

Location of RedmondLocation

Historic Weather in Redmond

°F

Redmond temperature yesterday

Maximum temperature yesterday: 61 °F (at 3:53 PM)
Minimum temperature yesterday: 45 °F (at 6:53 AM)
Average temperature yesterday: 54 °F

Past Weeks' High & Low Weather Summary

 TemperatureHumidityPressure
High72 °F (Apr 7, 3:53 PM)89% (Apr 17, 12:53 AM)30.31 "Hg (Apr 17, 12:53 AM)
Low42 °F (Apr 14, 6:53 AM)18% (Apr 13, 4:53 PM)29.73 "Hg (Apr 17, 7:53 PM)
Average54 °F64%30.12 "Hg
* Reported Apr 6 6:53 AM — Apr 21 6:53 AM, Redmond, Weather by CustomWeather, © 2014

Note: Actual official high and low records may vary slightly from our data, if they occured in-between our weather recording intervals... More about our weather records

Advertising

Historic Weather Conditions — Data for Previous 24 hours

 ConditionsComfort  
Time TempWeatherWind HumidityBarometerVisibility
6:53 AM
Apr 21
50 °FClear.3 mph71%30.04 "Hg10 mi
5:53 AM49 °FOvercast.3 mph77%30.06 "Hg10 mi
4:53 AM49 °FClear.6 mph77%30.07 "Hg10 mi
3:53 AM49 °FClear.6 mph74%30.09 "Hg10 mi
2:53 AM49 °FClear.6 mph77%30.10 "Hg10 mi
1:53 AM50 °FClear.6 mph71%30.11 "Hg10 mi
12:53 AM50 °FClear.6 mph71%30.13 "Hg10 mi
11:53 PM
Apr 20
50 °FClear.3 mph71%30.14 "Hg10 mi
10:53 PM54 °FClear.No wind57%30.14 "Hg10 mi
9:53 PM56 °FPassing clouds.No wind55%30.16 "Hg10 mi
8:53 PM58 °FPartly sunny.No wind51%30.16 "Hg10 mi
7:53 PM59 °FSunny.3 mph46%30.15 "Hg10 mi
6:53 PM60 °FBroken clouds.No wind44%30.16 "Hg10 mi
5:53 PM61 °FBroken clouds.3 mph42%30.18 "Hg10 mi
4:53 PM61 °FBroken clouds.5 mph44%30.20 "Hg10 mi
3:53 PM61 °FPartly sunny.3 mph39%30.20 "Hg10 mi
2:53 PM60 °FPartly sunny.3 mph39%30.22 "Hg10 mi
1:53 PM59 °FOvercast.3 mph41%30.24 "Hg10 mi
12:53 PM59 °FPassing clouds.6 mph38%30.25 "Hg10 mi
11:53 AM58 °FPassing clouds.8 mph41%30.28 "Hg10 mi
10:53 AM57 °FPartly sunny.9 mph46%30.30 "Hg10 mi
9:53 AM55 °FPassing clouds.10 mph53%30.29 "Hg10 mi
8:53 AM51 °FPassing clouds.9 mph61%30.30 "Hg10 mi
Weather by CustomWeather, © 2014

See weather overview